Regional Weather Roundup
Issued by NWS Burlington, VT

Current Version | Previous Version | Text Only | Print | Product List | Glossary On
Versions: 1 2 3 4 5 6 7 8 9 10 11 12 13 14 15 16 17 18 19 20 21 22 23 24 25 26 27 28 29 30 31 32 33 34 35 36 37 38 39 40 41 42 43 44 45 46 47 48 49 50
000 ASUS41 KBTV 301730 RWRBTV VERMONT REGIONAL WEATHER ROUNDUP NATIONAL WEATHER SERVICE BURLINGTON VT 100 PM EDT THU OCT 30 2014 NOTE: "FAIR" INDICATES FEW OR NO CLOUDS BELOW 12,000 FEET WITH NO SIGNIFICANT WEATHER AND/OR OBSTRUCTIONS TO VISIBILITY. * THESE REPORTS ARE NOT UNDER NWS QUALITY CONTROL AND/OR DO NOT REPORT WEATHER SUCH AS PRECIPITATION AND FOG. VTZ001>019-301800- _____VERMONT_____ CITY SKY/WX TMP DP RH WIND PRES REMARKS BURLINGTON PTSUNNY 51 33 50 NW9 29.97S MONTPELIER CLOUDY 45 35 68 NW6 29.97S MORRISVILLE MOSUNNY 47 32 56 VRB6G17 29.96S ST. JOHNSBURY* N/A 47 33 58 MISG 29.92S LYNDONVILLE* CLOUDY 45 33 62 W8 29.93S MIDDLEBURY* CLOUDY 51 38 60 N6 29.94F RUTLAND* CLOUDY 46 37 71 N6 29.94S SPRINGFIELD MOSUNNY 52 34 50 W13G20 29.93F HIGHGATE* CLOUDY 46 34 62 N5 29.97S NEWPORT* CLOUDY 41 35 79 NW5 29.95S BENNINGTON CLOUDY 50 36 58 W7 29.95F SUTTON* N/A 41 N/A N/A MISG N/A GALLUP MILLS* N/A 45 N/A N/A MISG N/A UNION VILLAGE* N/A 50 N/A N/A MISG N/A MT. MANSFIELD* N/A 30 N/A N/A NW14 N/A WCI 20 _____LAKE CHAMPLAIN_____ CITY SKY/WX TMP DP RH WIND PRES REMARKS BURTON ISLAND* N/A 48 36 61 NW7 N/A COLCHESTER RF* N/A 48 34 57 NW14 N/A DIAMOND ISL* N/A 48 36 61 N13 N/A $$ NYZ007-026>031-035-052-083-301800- _____NORTHERN NEW YORK_____ CITY SKY/WX TMP DP RH WIND PRES REMARKS PLATTSBURGH LGT RAIN 50 34 54 NW8 29.97S SARANAC LAKE CLOUDY 40 33 76 SW7 29.95S MASSENA CLOUDY 45 33 63 W6 30.01F OGDENSBURG* CLOUDY 46 36 66 W3 30.01F POTSDAM* CLOUDY 45 36 70 W6 30.00F STARK FALLS* N/A 41 N/A N/A NW2 N/A WATERTOWN CLOUDY 47 32 56 SW6 30.03F FT DRUM CLOUDY 43 32 64 W6 30.02S ALBANY PTSUNNY 51 36 56 W12G21 29.98F GLENS FALLS PTSUNNY 54 35 48 NW7 29.95F $$ NHZ002-005-011-301800- _____NEW HAMPSHIRE_____ CITY SKY/WX TMP DP RH WIND PRES REMARKS LEBANON LGT RAIN 51 39 63 VRB6 29.93F KEENE CLOUDY 52 34 50 N6 29.94S MT WASHINGTON SNOWSHWR 25 25 100 NW39 N/A VSB 0 WCI 6 PLYMOUTH PTSUNNY 49 41 73 NW5 29.92S WHITEFIELD PTSUNNY 48 35 60 W6 29.91F $$ _____REGIONAL QUEBEC LOCATIONS_____ CITY SKY/WX TMP DP RH WIND PRES REMARKS MONTREAL PTSUNNY 46 34 61 SW9 29.97F QUEBEC CITY PTSUNNY 46 36 66 SW16 29.89F SHERBROOKE CLOUDY 43 36 75 W10 29.93S _____REGIONAL ONTARIO LOCATIONS_____ CITY SKY/WX TMP DP RH WIND PRES REMARKS OTTAWA PTSUNNY 43 30 61 W13 30.01F ______KEY______ VSB - VISIBILITY IN MILES WCI - WIND CHILL INDEX HX - HEAT INDEX $$ NNNN

USA.gov is the U.S. government's official web portal to all federal, state and local government web resources and services.